Kiev, Ukraine

5:42 PM EET on January 22, 2017 (GMT +0200)
Zhuliany

Weather History for UKKK - February, 2012

Change the Weather History Date:

Saturday, February 4, 2012

  Actual Average (UKBB) Record (UKBB)
Temperature  
Mean Temperature 6 °F -  
Max Temperature 12 °F 29 °F 53 °F (2002)
Min Temperature 0 °F 16 °F -5 °F (2005)
Degree Days  
Heating Degree Days 59    
Moisture  
Dew Point 3 °F    
Average Humidity 83    
Maximum Humidity 92    
Minimum Humidity 70    
Precipitation  
Precipitation 0.31 in 0.06 in - ()
Sea Level Pressure  
Sea Level Pressure 30.58 in    
Wind  
Wind Speed 10 mph ()    
Max Wind Speed 16 mph    
Max Gust Speed -    
Visibility 1.6 miles    
Events Snow    
Averages and records for this station are not official NWS values.
T = Trace of Precipitation, MM = Missing Value Source: Averaged Metar Reports

Daily Weather History Graph

Daily Weather History Graph

Search for Another Location

Airport or City:

Trip Planner

Search our weather history database for the weather conditions in past years. The results will help you decide how hot, cold, wet, or windy it might be!

Date:

Astronomy

Feb. 04, 2012 Rise Set
Actual Time 7:29 AM EET 4:55 PM EET
Civil Twilight 6:54 AM EET 5:30 PM EET
Nautical Twilight 6:15 AM EET 6:09 PM EET
Astronomical Twilight 5:37 AM EET 6:47 PM EET
Moon 1:19 PM EET (2/4) 4:52 AM EET (2/4)
Length of Visible Light 10h 35m
Length of Day
9h 25m
Waxing Gibbous, 87% of the Moon is Illuminated
Feb 4
Waxing Gibbous
Feb 7
Full
Feb 14
Last Quarter
Feb 22
New
Mar 1
First Quarter

Hourly Weather History & Observations

Time (EET) Temp. Windchill Dew Point Humidity Pressure Visibility Wind Dir Wind Speed Gust Speed Precip Events Conditions
12:00 AM 3.2 °F -12.9 °F -2.2 °F 78% 30.71 in 3.1 mi East 11.2 mph - N/A Snow Light Snow
12:30 AM 3.2 °F -12.9 °F -2.2 °F 78% 30.71 in - East 11.2 mph - N/A Snow Light Snow
1:00 AM 3.2 °F -12.9 °F -2.2 °F 78% 30.69 in - East 11.2 mph - N/A Snow Light Snow
1:30 AM 3.2 °F -12.9 °F -0.4 °F 85% 30.69 in 5.6 mi East 11.2 mph - N/A Snow Light Snow
2:00 AM 3 °F - -2 °F 70% 30.79 in 6 mi East 6.7 mph - - Snow Light Snow
2:00 AM 5.0 °F -10.6 °F -0.4 °F 78% 30.69 in 3.7 mi East 11.2 mph - N/A Snow Light Snow
2:13 AM 5.0 °F -12.1 °F -0.4 °F 78% 30.69 in 1.7 mi East 13.4 mph - N/A Snow Light Snow
2:30 AM 5.0 °F -12.1 °F -0.4 °F 78% 30.69 in 2.5 mi East 13.4 mph - N/A Snow Light Snow
3:00 AM 5.0 °F -12.1 °F -0.4 °F 78% 30.66 in 5.0 mi East 13.4 mph - N/A Snow Light Snow
3:30 AM 5.0 °F -12.1 °F 1.4 °F 85% 30.66 in - East 13.4 mph - N/A Snow Light Snow
4:00 AM 5.0 °F -13.3 °F 1.4 °F 85% 30.63 in 2.5 mi East 15.7 mph - N/A Snow Light Snow
4:30 AM 5.0 °F -13.3 °F 1.4 °F 85% 30.63 in 1.6 mi East 15.7 mph - N/A Snow Light Snow
4:39 AM 6.8 °F -9.8 °F 1.4 °F 79% 30.63 in 1.2 mi East 13.4 mph - N/A Snow Snow
4:48 AM 6.8 °F -9.8 °F 1.4 °F 79% 30.63 in 0.8 mi East 13.4 mph - N/A Snow Snow
5:00 AM 5 °F - 0 °F 73% 30.73 in 6 mi ESE 6.7 mph - - Snow Light Snow
5:00 AM 6.8 °F -9.8 °F 1.4 °F 79% 30.63 in 0.8 mi East 13.4 mph - N/A Snow Snow
5:30 AM 6.8 °F -9.8 °F 1.4 °F 79% 30.63 in 1.0 mi East 13.4 mph - N/A Snow Snow
6:00 AM 5.0 °F -12.1 °F 1.4 °F 85% 30.63 in 1.2 mi East 13.4 mph - N/A Snow Snow
6:30 AM 5.0 °F -12.1 °F 1.4 °F 85% 30.63 in - East 13.4 mph - N/A Snow Light Snow
6:48 AM 5.0 °F -12.1 °F 1.4 °F 85% 30.60 in 0.9 mi East 13.4 mph - N/A Snow Snow
7:00 AM 5.0 °F -12.1 °F 1.4 °F 85% 30.60 in 0.9 mi East 13.4 mph - N/A Snow Snow
7:05 AM 5.0 °F -12.1 °F 1.4 °F 85% 30.60 in 0.9 mi East 13.4 mph - N/A Snow Snow
7:30 AM 5.0 °F -12.1 °F 1.4 °F 85% 30.60 in 1.4 mi East 13.4 mph - N/A Snow Light Snow
8:00 AM 5 °F - 2 °F 82% 30.71 in 6 mi ESE 6.7 mph - - Snow Light Snow
8:00 AM 5.0 °F -12.1 °F 1.4 °F 85% 30.60 in 1.7 mi East 13.4 mph - N/A Snow Light Snow
8:30 AM 5.0 °F -12.1 °F -0.4 °F 78% 30.60 in 1.4 mi East 13.4 mph - N/A Snow Light Snow
9:00 AM 5.0 °F -13.3 °F -0.4 °F 78% 30.60 in 1.1 mi ESE 15.7 mph - N/A Snow Snow
9:04 AM 5.0 °F -13.3 °F 1.4 °F 85% 30.60 in 0.9 mi ESE 15.7 mph - N/A Snow Snow
9:18 AM 5.0 °F -13.3 °F 1.4 °F 85% 30.60 in 1.2 mi East 15.7 mph - N/A Snow Snow
9:30 AM 5.0 °F -13.3 °F -0.4 °F 78% 30.57 in 1.1 mi East 15.7 mph - N/A Snow Snow
9:33 AM 5.0 °F -13.3 °F 1.4 °F 85% 30.57 in 0.7 mi East 15.7 mph - N/A Snow Snow
10:00 AM 5.0 °F -13.3 °F 1.4 °F 85% 30.57 in 0.9 mi East 15.7 mph - N/A Snow Snow
10:12 AM 5.0 °F -13.3 °F 1.4 °F 85% 30.57 in 0.9 mi East 15.7 mph - N/A Snow Snow
10:30 AM 5.0 °F -12.1 °F 1.4 °F 85% 30.57 in 0.8 mi ESE 13.4 mph - N/A Snow Snow
10:56 AM 5.0 °F -10.6 °F 1.4 °F 85% 30.60 in 0.6 mi ESE 11.2 mph - N/A Snow Heavy Snow
11:00 AM 6 °F - 1 °F 73% 30.69 in 1 mi SE 6.7 mph - - Snow Snow
11:00 AM 5.0 °F -10.6 °F 1.4 °F 85% 30.60 in 0.6 mi ESE 11.2 mph - N/A Snow Heavy Snow
11:16 AM 5.0 °F -10.6 °F 1.4 °F 85% 30.60 in 1.1 mi ESE 11.2 mph - N/A Snow Snow
11:30 AM 5.0 °F -10.6 °F 1.4 °F 85% 30.57 in 1.1 mi ESE 11.2 mph - N/A Snow Snow
12:00 PM 5.0 °F -12.1 °F -0.4 °F 78% 30.57 in 1.5 mi ESE 13.4 mph - N/A Snow Light Snow
12:04 PM 5.0 °F -12.1 °F -0.4 °F 78% 30.57 in 1.2 mi ESE 13.4 mph - N/A Snow Snow
12:30 PM 5.0 °F -12.1 °F -0.4 °F 78% 30.57 in 1.6 mi East 13.4 mph - N/A Snow Light Snow
1:15 PM 6.8 °F -6.7 °F 1.4 °F 79% 30.57 in 1.2 mi ESE 8.9 mph - N/A Snow Snow
2:00 PM 7 °F - 3 °F 74% 30.65 in 1 mi ESE 4.5 mph - - Snow Snow
3:00 PM 6.8 °F -6.7 °F 1.4 °F 79% 30.54 in 1.6 mi ESE 8.9 mph - N/A Snow Light Snow
3:09 PM 6.8 °F -6.7 °F 1.4 °F 79% 30.54 in 1.2 mi ESE 8.9 mph - N/A Snow Snow
3:30 PM 6.8 °F -8.4 °F 1.4 °F 79% 30.54 in 1.4 mi ESE 11.2 mph - N/A Snow Light Snow
4:00 PM 6.8 °F -6.7 °F 3.2 °F 85% 30.54 in 1.6 mi East 8.9 mph - N/A Snow Light Snow
4:10 PM 6.8 °F -6.7 °F 3.2 °F 85% 30.54 in 1.2 mi ESE 8.9 mph - N/A Snow Snow
4:21 PM 6.8 °F -6.7 °F 3.2 °F 85% 30.54 in 0.8 mi ESE 8.9 mph - N/A Snow Snow Showers
4:23 PM 6.8 °F -6.7 °F 3.2 °F 85% 30.54 in 0.4 mi ESE 8.9 mph - N/A Snow Heavy Snow Showers
4:30 PM 6.8 °F -8.4 °F 3.2 °F 85% 30.54 in 0.5 mi East 11.2 mph - N/A Snow Heavy Snow Showers
5:00 PM 7 °F - 3 °F 78% 30.64 in 1 mi SE 2.2 mph - - Snow Snow
5:00 PM 6.8 °F -6.7 °F 3.2 °F 85% 30.54 in 0.7 mi ESE 8.9 mph - N/A Snow Snow Showers
5:14 PM 6.8 °F -4.6 °F 3.2 °F 85% 30.54 in - ESE 6.7 mph - N/A Snow Heavy Snow Showers
5:30 PM 6.8 °F -4.6 °F 3.2 °F 85% 30.54 in 0.9 mi East 6.7 mph - N/A Snow Snow Showers
5:55 PM 8.6 °F -2.4 °F 5.0 °F 85% 30.54 in - ESE 6.7 mph - N/A Snow Heavy Snow Showers
6:00 PM 8.6 °F -2.4 °F 5.0 °F 85% 30.54 in 0.9 mi ESE 6.7 mph - N/A Snow Snow Showers
6:16 PM 8.6 °F -2.4 °F 5.0 °F 85% 30.54 in - East 6.7 mph - N/A Snow Light Snow Showers
6:30 PM 8.6 °F -4.4 °F 5.0 °F 85% 30.54 in 1.2 mi East 8.9 mph - N/A Snow Snow Showers
7:00 PM 8.6 °F -6.1 °F 5.0 °F 85% 30.51 in 0.9 mi ESE 11.2 mph - N/A Snow Snow Showers
7:30 PM 8.6 °F -4.4 °F 5.0 °F 85% 30.54 in 1.7 mi East 8.9 mph - N/A Snow Light Snow Showers
7:42 PM 8.6 °F -4.4 °F 5.0 °F 85% 30.51 in 0.9 mi East 8.9 mph - N/A Snow Snow Showers
7:50 PM 8.6 °F -4.4 °F 5.0 °F 85% 30.51 in 0.6 mi East 8.9 mph - N/A Snow Heavy Snow Showers
7:54 PM 8.6 °F -4.4 °F 5.0 °F 85% 30.51 in - East 8.9 mph - N/A Snow Heavy Snow Showers
8:00 PM 9 °F - 6 °F 82% 30.61 in 1 mi ESE 4.5 mph - - Snow Snow
8:00 PM 8.6 °F -4.4 °F 5.0 °F 85% 30.51 in 0.5 mi East 8.9 mph - N/A Snow Heavy Snow Showers
8:30 PM 8.6 °F -4.4 °F 6.8 °F 92% 30.51 in 0.7 mi East 8.9 mph - N/A Snow Snow Showers
8:45 PM 10.4 °F -2.2 °F 6.8 °F 85% 30.51 in 1.4 mi East 8.9 mph - N/A Snow Light Snow Showers
9:00 PM 10.4 °F -2.2 °F 6.8 °F 85% 30.51 in 1.6 mi ESE 8.9 mph - N/A Snow Light Snow Showers
9:30 PM 10.4 °F -2.2 °F 6.8 °F 85% 30.51 in 1.6 mi ESE 8.9 mph - N/A Snow Light Snow Showers
9:36 PM 10.4 °F -2.2 °F 6.8 °F 85% 30.51 in 0.8 mi ESE 8.9 mph - N/A Snow Snow Showers
10:00 PM 10.4 °F -2.2 °F 6.8 °F 85% 30.48 in 1.9 mi East 8.9 mph - N/A Snow Light Snow Showers
10:05 PM 10.4 °F -2.2 °F 6.8 °F 85% 30.48 in 1.7 mi East 8.9 mph - N/A Snow Light Snow Showers
10:30 PM 12.2 °F -0.0 °F 8.6 °F 85% 30.48 in - East 8.9 mph - N/A Snow Light Snow Showers
10:46 PM 12.2 °F -0.0 °F 8.6 °F 85% 30.48 in 1.6 mi East 8.9 mph - N/A Snow Light Snow Showers
11:00 PM 11 °F - 9 °F 87% 30.57 in 1 mi ESE 2.2 mph - - Snow Light Snow
11:00 PM 12.2 °F -0.0 °F 8.6 °F 85% 30.48 in - ESE 8.9 mph - N/A Snow Light Snow Showers
11:30 PM 12.2 °F 1.9 °F 8.6 °F 85% 30.48 in 5.6 mi ESE 6.7 mph - N/A Snow Light Snow